Terminal Aerodrome Forecast
Issued by NWS

Home | Current Version | Previous Version | Text Only | Print | Product List | Glossary On
Versions: 1 2 3 4 5 6 7 8 9 10 11 12 13 14 15 16 17 18 19 20 21 22 23 24 25 26 27 28 29 30 31 32 33 34 35
000
FTUS41 KRNK 271720
TAFBCB
TAF
KBCB 271720Z 2718/2818 36005KT P6SM SCT035
     FM280200 VRB03KT P6SM SCT040
     FM280800 00000KT 3SM BR SCT005
      TEMPO 2809/2812 1/2SM FG BKN005
     FM281400 32005KT P6SM BKN025=

USA.gov is the U.S. government's official web portal to all federal, state and local government web resources and services.